Regional Weather Roundup
Issued by NWS

Home | Current Version | Previous Version | Graphics & Text | Print | Product List | Glossary On
Versions: 1 2 3 4 5 6 7 8 9 10 11 12 13 14 15 16 17 18 19 20 21 22 23 24 25 26 27 28 29 30 31 32 33 34 35 36 37 38 39 40 41 42 43 44 45 46 47 48 49 50
000
ASUS43 KLSX 241459
RWRMO

WEATHER SUMMARY FOR MISSOURI
NATIONAL WEATHER SERVICE SPRINGFIELD MO
1000 AM CDT THU JUL 24 2014

NOTE: "FAIR" INDICATES FEW OR NO CLOUDS BELOW 12,000 FEET WITH NO
       SIGNIFICANT WEATHER AND/OR OBSTRUCTIONS TO VISIBILITY.
       CURRENT SKY AND/OR WEATHER CONDITIONS ARE NOT AVAILABLE FOR
       CHILLICOTHE AND FARMINGTON.

MOZ001>031-035>038-043-044-053-054-241600-
...NORTHERN AND WESTERN MISSOURI...

CITY           SKY/WX    TMP DP  RH WIND       PRES   REMARKS
KANSAS CTY INT MOSUNNY   75  59  57 SE14      30.16S
KANSAS C DTWN  SUNNY     77  59  53 SE10      30.15S
LEE`S SUMMIT   SUNNY     75  59  57 VRB7      30.17R
ST JOSEPH      SUNNY     75  60  59 SE13      30.15F
CHILLICOTHE      N/A     74  59  59 S7        30.17S
KIRKSVILLE     SUNNY     73  60  63 E6        30.19R

$$
MOZ066>068-077>081-088>096-101>105-241600-
...SOUTHWEST MISSOURI...

CITY           SKY/WX    TMP DP  RH WIND       PRES   REMARKS
SPRINGFIELD    SUNNY     75  59  57 E9        30.15S
JOPLIN         SUNNY     77  66  68 SE6       30.13R

$$
MOZ032>034-039>042-045>050-055>058-069>072-241600-
...CENTRAL MISSOURI...

CITY           SKY/WX    TMP DP  RH WIND       PRES   REMARKS
COLUMBIA       SUNNY     72  57  59 E7        30.17S
JEFFERSON CITY SUNNY     71  56  58 SE5       30.16S
ROLLA          SUNNY     70  54  56 VRB5      30.17R
SEDALIA        SUNNY     75  60  59 SE10      30.18R HAZE
OSAGE BEACH    SUNNY     73  55  53 SE5       30.17S

$$
MOZ051-052-059>065-241600-
...EAST CENTRAL MISSOURI...

CITY           SKY/WX    TMP DP  RH WIND       PRES   REMARKS
ST LOUIS INTL  SUNNY     71  55  56 VRB5      30.16R
SPIRIT OF STL  SUNNY     71  51  49 NE10      30.14F
ST CHARLES     SUNNY     70  58  65 N8        30.15S

$$
MOZ072>076-082>087-097>100-106>115-241600-
...SOUTH CENTRAL AND SOUTHEAST MISSOURI...

CITY           SKY/WX    TMP DP  RH WIND       PRES   REMARKS
CAPE GIRARDEAU SUNNY     71  57  61 N7        30.10S
FARMINGTON     SUNNY     70  50  49 N8        30.16S
POPLAR BLUFF   SUNNY     73  53  49 N7        30.11S
WEST PLAINS    SUNNY     72  56  57 NE10      30.17S

$$



USA.gov is the U.S. government's official web portal to all federal, state and local government web resources and services.